EW9636 Weather Reports


Display with metric or nautical units.
time (UTC)temp
F
wind
direction
speed
MPH
gust
MPH
rain 1hr
in
rain 24hr
in
rain mn
in
humidity
%
barometer
mb
20260510175031 57 45 4.0 6.0 0.00 0.00 0.00 56 1015.7
20260510174021 56 45 3.0 6.0 0.00 0.00 0.00 59 1015.7
20260510173020 56 45 2.0 5.0 0.00 0.00 0.00 58 1015.7
20260510172020 57 23 2.0 4.0 0.00 0.00 0.00 55 1015.9
20260510171020 59 45 3.0 8.0 0.00 0.00 0.00 52 1016.0
20260510170040 60 45 5.0 10.0 0.00 0.00 0.00 52 1016.1
20260510165040 60 0 3.0 7.0 0.00 0.00 0.00 57 1016.2
20260510164019 58 23 2.0 6.0 0.00 0.00 0.00 59 1016.2
20260510163020 57 0 2.0 4.0 0.00 0.00 0.00 58 1016.4
20260510162039 57 23 3.0 5.0 0.00 0.00 0.00 58 1016.5
20260510161020 58 23 5.0 10.0 0.00 0.00 0.00 58 1016.5
20260510160030 57 45 4.0 10.0 0.00 0.00 0.00 61 1016.7
20260510155020 58 23 3.0 5.0 0.00 0.00 0.00 59 1016.8
20260510154019 58 45 4.0 6.0 0.00 0.00 0.00 59 1016.8
20260510153039 58 45 6.0 10.0 0.00 0.00 0.00 59 1016.9
20260510152040 58 23 3.0 5.0 0.00 0.00 0.00 61 1017.0
20260510151100 58 23 4.0 6.0 0.00 0.00 0.00 60 1017.2
20260510150019 58 68 3.0 5.0 0.00 0.00 0.00 60 1017.3
20260510145019 58 45 4.0 6.0 0.00 0.00 0.00 62 1017.4
20260510144019 58 45 5.0 10.0 0.00 0.00 0.00 62 1017.5
20260510143019 58 90 4.0 9.0 0.00 0.00 0.00 62 1017.5
20260510142039 57 45 4.0 6.0 0.00 0.00 0.00 62 1017.6
20260510141023 59 45 6.0 11.0 0.00 0.00 0.00 61 1017.8
20260510140039 58 45 5.0 10.0 0.00 0.00 0.00 65 1017.7
20260510135019 57 45 4.0 7.0 0.00 0.00 0.00 65 1017.9
20260510134019 58 45 6.0 8.0 0.00 0.00 0.00 63 1017.7
20260510133019 57 45 7.0 11.0 0.00 0.00 0.00 67 1017.9
20260510132019 56 45 2.0 4.0 0.00 0.00 0.00 68 1018.3
20260510131019 55 45 5.0 8.0 0.00 0.00 0.00 69 1018.4
20260510130019 55 45 3.0 4.0 0.00 0.00 0.00 69 1018.3
20260510125019 55 45 5.0 8.0 0.00 0.00 0.00 71 1018.5
20260510124039 55 45 6.0 12.0 0.00 0.00 0.00 72 1018.6
20260510123019 54 45 6.0 9.0 0.00 0.00 0.00 71 1018.6
20260510122020 54 45 3.0 6.0 0.00 0.00 0.00 73 1018.7
20260510121019 53 45 4.0 6.0 0.00 0.00 0.00 75 1018.9
20260510120019 53 338 4.0 7.0 0.00 0.00 0.00 73 1019.0
20260510115019 53 45 3.0 5.0 0.00 0.00 0.00 76 1019.2
20260510114039 53 45 2.0 5.0 0.00 0.00 0.00 75 1019.4
20260510113028 52 45 6.0 11.0 0.00 0.00 0.00 76 1019.5
20260510112521 52 23 4.0 8.0 0.00 0.00 0.00 75 1019.5
20260510112119 52 45 6.0 9.0 0.00 0.00 0.00 77 1019.5
20260510111118 52 45 4.0 6.0 0.00 0.00 0.00 78 1019.6
20260510110139 51 23 4.0 9.0 0.00 0.00 0.00 78 1019.6
20260510105118 51 45 4.0 7.0 0.00 0.00 0.00 78 1019.8
20260510104140 50 45 4.0 9.0 0.00 0.00 0.00 79 1019.8
20260510103119 50 45 5.0 7.0 0.00 0.00 0.00 79 1019.8
20260510102118 50 23 6.0 9.0 0.00 0.00 0.00 80 1019.9
20260510101119 50 23 5.0 7.0 0.00 0.00 0.00 81 1020.0
20260510100123 50 45 6.0 10.0 0.00 0.00 0.00 81 1019.9
20260510095618 50 45 6.0 12.0 0.00 0.00 0.00 81 1019.9
20260510094620 50 45 6.0 11.0 0.00 0.00 0.00 82 1020.0
20260510093618 50 23 5.0 10.0 0.00 0.00 0.00 82 1020.1
20260510092620 49 45 6.0 12.0 0.00 0.00 0.00 83 1020.1
20260510091629 49 45 5.0 7.0 0.00 0.00 0.00 84 1020.2
20260510090620 49 45 4.0 5.0 0.00 0.00 0.00 85 1020.2
20260510085640 48 23 5.0 8.0 0.00 0.00 0.00 85 1020.3
20260510084620 48 45 5.0 7.0 0.00 0.00 0.00 85 1020.3
20260510083620 48 45 4.0 7.0 0.00 0.00 0.00 86 1020.4
20260510082620 48 68 4.0 8.0 0.00 0.00 0.00 86 1020.4
20260510081638 48 23 5.0 13.0 0.00 0.00 0.00 87 1020.4
20260510080620 48 45 4.0 8.0 0.00 0.00 0.00 87 1020.5
20260510075620 47 45 5.0 7.0 0.00 0.00 0.00 87 1020.5
20260510074620 47 45 4.0 8.0 0.00 0.00 0.00 87 1020.6
20260510073620 47 45 5.0 9.0 0.00 0.00 0.00 87 1020.5
20260510072620 47 45 5.0 10.0 0.00 0.00 0.00 88 1020.3
20260510071620 47 45 6.0 9.0 0.00 0.00 0.00 88 1020.2
20260510070620 48 23 5.0 7.0 0.00 0.00 0.00 88 1020.2
20260510065620 48 45 4.0 8.0 0.00 0.00 0.00 88 1020.3
20260510064620 47 23 3.0 5.0 0.00 0.00 0.00 89 1020.1
20260510063620 48 45 5.0 11.0 0.00 0.00 0.00 89 1020.1
20260510062640 48 45 4.0 6.0 0.00 0.00 0.00 90 1020.2
20260510061620 48 45 5.0 10.0 0.00 0.00 0.00 90 1020.1
20260510060620 48 45 7.0 10.0 0.00 0.00 0.00 90 1020.0
20260510055640 48 45 5.0 8.0 0.00 0.00 0.00 90 1020.1
20260510054620 48 45 4.0 8.0 0.00 0.00 0.00 90 1019.9
20260510053620 48 45 4.0 7.0 0.00 0.00 0.00 90 1019.9
20260510052620 48 45 4.0 6.0 0.00 0.00 0.00 90 1019.9
20260510051620 48 45 5.0 7.0 0.00 0.00 0.00 91 1019.9
20260510050620 48 45 6.0 9.0 0.00 0.00 0.00 90 1020.1
20260510045620 48 45 5.0 8.0 0.00 0.00 0.00 90 1020.1
20260510044640 48 0 4.0 9.0 0.00 0.00 0.00 90 1020.1
20260510043620 48 0 3.0 5.0 0.00 0.00 0.00 90 1020.1
20260510042640 48 45 5.0 10.0 0.00 0.00 0.00 90 1020.2
20260510041619 48 45 6.0 10.0 0.00 0.00 0.00 90 1020.2
20260510040619 48 45 7.0 13.0 0.00 0.00 0.00 90 1020.3
20260510035619 48 45 6.0 10.0 0.00 0.00 0.00 90 1020.3
20260510034619 48 23 4.0 5.0 0.00 0.00 0.00 89 1020.4
20260510033620 48 45 4.0 9.0 0.00 0.00 0.00 89 1020.4
20260510032619 48 45 3.0 6.0 0.00 0.00 0.00 90 1020.4
20260510031619 48 45 3.0 7.0 0.00 0.00 0.00 90 1020.4
20260510030620 49 68 3.0 6.0 0.00 0.00 0.00 90 1020.5
20260510025620 49 45 4.0 8.0 0.00 0.00 0.00 89 1020.5
20260510024620 49 23 5.0 7.0 0.00 0.00 0.00 90 1020.5
20260510023620 49 45 4.0 7.0 0.00 0.00 0.00 89 1020.5
20260510022619 49 45 4.0 7.0 0.00 0.00 0.00 89 1020.5
20260510021619 49 45 5.0 8.0 0.00 0.00 0.00 89 1020.4
20260510020619 49 45 4.0 6.0 0.00 0.00 0.00 89 1020.5
20260510015619 50 23 5.0 14.0 0.00 0.00 0.00 88 1020.4
20260510014620 50 45 3.0 5.0 0.00 0.00 0.00 88 1020.5
20260510013619 50 23 4.0 6.0 0.00 0.00 0.00 88 1020.6
20260510012639 50 45 5.0 8.0 0.00 0.00 0.00 88 1020.6
20260510011619 50 45 4.0 8.0 0.00 0.00 0.00 87 1020.7
20260510010619 50 23 4.0 7.0 0.00 0.00 0.00 87 1020.8
20260510005619 50 45 4.0 6.0 0.00 0.00 0.00 87 1020.6
20260510004619 50 45 4.0 5.0 0.00 0.00 0.00 86 1020.7
20260510003639 50 45 4.0 6.0 0.00 0.00 0.00 86 1020.5
20260510002619 50 23 5.0 10.0 0.00 0.00 0.00 86 1020.6
20260510001640 51 45 4.0 6.0 0.00 0.00 0.00 86 1020.4
20260510000619 51 23 4.0 8.0 0.00 0.00 0.00 86 1020.5
20260509235619 51 45 4.0 7.0 0.00 0.00 0.00 85 1020.4
20260509234619 51 23 4.0 7.0 0.00 0.00 0.00 85 1020.4
20260509233639 52 45 4.0 8.0 0.00 0.00 0.00 85 1020.5
20260509232639 52 45 2.0 4.0 0.00 0.00 0.00 85 1020.5
20260509231619 52 23 3.0 12.0 0.00 0.00 0.00 84 1020.6
20260509230619 52 45 6.0 9.0 0.00 0.00 0.00 84 1020.5
20260509225619 52 0 3.0 5.0 0.00 0.00 0.00 85 1020.4
20260509224619 52 45 5.0 9.0 0.00 0.00 0.00 85 1020.3
20260509223619 53 23 2.0 6.0 0.00 0.00 0.00 85 1020.2
20260509222619 53 45 2.0 5.0 0.00 0.00 0.00 84 1020.1
20260509221619 53 23 6.0 10.0 0.00 0.00 0.00 84 1020.0
20260509220619 54 68 4.0 7.0 0.00 0.01 0.00 84 1020.1
20260509215619 54 45 5.0 8.0 0.00 0.01 0.00 84 1020.0
20260509214619 54 45 2.0 5.0 0.00 0.02 0.00 83 1020.0
20260509213619 54 45 3.0 6.0 0.00 0.04 0.00 83 1019.9
20260509212639 55 45 6.0 10.0 0.00 0.06 0.00 83 1019.6
20260509211619 55 45 6.0 10.0 0.00 0.06 0.00 83 1019.3
20260509210619 55 45 5.0 7.0 0.00 0.06 0.00 84 1019.3
20260509205619 55 23 2.0 4.0 0.00 0.06 0.00 85 1019.2
20260509204619 55 23 2.0 3.0 0.00 0.06 0.00 84 1019.1
20260509203619 56 23 4.0 5.0 0.00 0.06 0.00 84 1018.9
20260509202619 56 23 5.0 10.0 0.00 0.06 0.00 83 1019.0
20260509201619 56 23 4.0 7.0 0.00 0.06 0.00 82 1019.0
20260509200619 57 45 5.0 8.0 0.00 0.06 0.00 82 1018.8
20260509195619 57 338 2.0 4.0 0.00 0.06 0.00 81 1018.7
20260509194619 57 0 1.0 2.0 0.00 0.06 0.00 81 1018.4
20260509193619 57 45 2.0 5.0 0.00 0.06 0.00 80 1018.5
20260509192619 58 23 1.0 2.0 0.00 0.06 0.00 80 1018.3
20260509191619 58 338 1.0 3.0 0.00 0.06 0.00 79 1018.2
20260509190619 59 293 1.0 2.0 0.00 0.08 0.00 78 1018.2
20260509185619 59 293 1.0 7.0 0.00 0.09 0.00 77 1018.2
20260509184619 60 315 4.0 14.0 0.00 0.12 0.00 76 1018.1
20260509183719 61 45 2.0 5.0 0.00 0.13 0.00 75 1018.0
20260509182619 62 135 2.0 3.0 0.00 0.17 0.00 74 1017.9
20260509181659 63 338 2.0 4.0 0.00 0.23 0.00 72 1017.7
20260509180619 64 248 2.0 4.0 0.00 0.24 0.00 70 1017.6
20260509175619 66 90 2.0 5.0 0.00 0.24 0.00 67 1017.8